Tracking 29892 objects as of 21-Nov-2024
HD Live streaming from Space Station
objects crossing your sky now

IRIDIUM 33 DEB

Track IRIDIUM 33 DEB now!
10-day predictions


NORAD ID: 33853
Int'l Code: 1997-051W
Perigee: 753.1 km
Apogee: 1,073.2 km
Inclination: 86.0 °
Period: 103.1 minutes
Semi major axis: 7284 km
RCS: 0.038 m2 (small)
Launch date: September 14, 1997
Source: United States (US)
Launch site: TYURATAM MISSILE AND SPACE COMPLEX (TTMTR)

Note: This is SATELLITE DEBRIS
Your satellite tracking list
Your tracking list is empty




NASA's NSSDC Master Catalog

Two Line Element Set (TLE):
1 33853U 97051W   24326.00305847  .00003484  00000-0  20490-2 0  9994
2 33853  86.0007 159.0346 0219703 341.3031 184.4360 13.96480417799532
Source of the keplerian elements: AFSPC